Location: The C. Gantt Observatory
(33.6981°N, 81.6836°W)
Time: 03:08:00
(UTC-05:00)

Iridium 30 - Visible Passes

Search period start: 04 December 2016 00:00
Search period end: 14 December 2016 00:00
Orbit: 776 x 779 km, 86.4° (Epoch: 03 December)

Date Brightness Start Highest point End Pass type
(mag) Time Alt. Az. Time Alt. Az. Time Alt. Az.
06 Dec 8.5 06:17:30 10° ENE 06:19:16 12° ENE 06:21:01 10° E visible
07 Dec 8.1 20:14:17 10° SSW 20:14:25 11° SSW 20:14:25 11° SSW visible
08 Dec 7.4 06:48:35 10° NNE 06:53:19 34° E 06:58:00 10° SSE visible
08 Dec 7.4 19:40:36 10° S 19:42:00 19° S 19:42:00 19° S visible
09 Dec 8.2 06:16:07 10° NE 06:19:35 18° E 06:23:03 10° ESE visible
09 Dec 6.9 19:07:33 10° SSE 19:09:38 23° SE 19:09:38 23° SE visible
09 Dec 8.4 20:49:46 10° WSW 20:50:11 11° WSW 20:50:11 11° WSW visible
10 Dec 7.0 18:35:15 10° SE 18:37:20 18° ESE 18:37:20 18° ESE visible
10 Dec 7.3 20:14:50 10° SSW 20:17:53 28° WSW 20:17:53 28° WSW visible
11 Dec 6.6 06:48:26 10° N 06:53:31 51° E 06:58:34 10° SSE visible
11 Dec 7.4 18:04:53 10° E 18:05:04 10° E 18:05:04 10° E visible
11 Dec 5.8 19:40:47 10° S 19:45:37 66° WSW 19:45:37 66° WSW visible
12 Dec 7.8 06:15:32 10° NNE 06:19:53 26° E 06:24:13 10° SE visible
12 Dec 5.4 19:07:21 10° SSE 19:12:28 62° E 19:13:25 52° NE visible
12 Dec 8.4 20:51:46 10° W 20:53:35 12° WNW 20:53:58 12° WNW visible
13 Dec 8.4 05:43:34 10° NE 05:46:07 14° ENE 05:48:39 10° ESE visible
13 Dec 6.2 18:34:33 10° SE 18:39:06 32° E 18:41:15 23° NE visible
13 Dec 7.6 20:15:42 10° SW 20:19:48 23° W 20:21:49 19° NW visible
